COSMOS 2463

Last updated on Wed Aug 19 2026 00:03:33 GMT+0000 (Coordinated Universal Time)

1 36519U 10017A 26230.49822405 .00000038 00000+0 25739-4 0 9990 2 36519 82.9601 203.9213 0035181 319.1043 166.7656 13.71668654816471
UTC large
Height (km)
Speed (km/s)
/
Latitude / Longitude
Inclination (degrees)
Orbital Period (minutes)
Azimuth
Elevation
Range (km)
Doppler Factor

Next 0 passes for location: London (51.5072 / 0.1276)

No passes found over London.
COSMOS 2463